TimeCDT,TemperatureF,Dew PointF,Humidity,Sea Level PressureIn,VisibilityMPH,Wind Direction,Wind SpeedMPH,Gust SpeedMPH,PrecipitationIn,Events,Conditions,WindDirDegrees,DateUTC
12:53 AM,75.0,66.0,73,29.88,10.0,South,16.1,25.3,N/A,,Mostly Cloudy,190,2012-10-14 05:53:00
1:53 AM,73.0,64.9,76,29.95,10.0,NNW,26.5,35.7,N/A,,Mostly Cloudy,330,2012-10-14 06:53:00
1:58 AM,68.0,62.6,83,29.97,10.0,WNW,19.6,39.1,N/A,,Mostly Cloudy,300,2012-10-14 06:58:00
2:17 AM,64.4,62.6,94,29.97,1.8,West,11.5,27.6,0.16,Rain,Heavy Rain,260,2012-10-14 07:17:00
2:33 AM,64.4,62.6,94,29.97,2.5,West,16.1,23.0,0.28,Rain,Heavy Rain,260,2012-10-14 07:33:00
2:45 AM,64.4,62.6,94,29.96,2.5,West,17.3,25.3,0.38,Rain-Thunderstorm,Heavy Rain,260,2012-10-14 07:45:00
2:53 AM,64.0,62.1,93,29.94,2.0,WSW,17.3,25.3,0.48,Rain-Thunderstorm,Heavy Thunderstorms and Rain,250,2012-10-14 07:53:00
3:17 AM,64.4,62.6,94,29.95,3.0,SSW,15.0,-,0.15,Rain-Thunderstorm,Heavy Thunderstorms and Rain,210,2012-10-14 08:17:00
3:26 AM,64.4,62.6,94,29.92,2.5,SW,13.8,23.0,0.20,Rain-Thunderstorm,Heavy Thunderstorms and Rain,230,2012-10-14 08:26:00
3:33 AM,64.4,62.6,94,29.93,5.0,SW,15.0,-,0.22,Rain-Thunderstorm,Thunderstorms and Rain,230,2012-10-14 08:33:00
3:53 AM,63.0,62.1,97,29.91,4.0,South,10.4,-,0.27,Rain-Thunderstorm,Light Thunderstorms and Rain,190,2012-10-14 08:53:00
4:53 AM,63.0,62.1,97,29.91,6.0,South,12.7,24.2,0.15,Rain,Rain,190,2012-10-14 09:53:00
5:10 AM,62.6,62.6,100,29.89,8.0,South,10.4,-,0.02,Rain-Thunderstorm,Light Rain,190,2012-10-14 10:10:00
5:33 AM,64.4,62.6,94,29.91,10.0,SW,12.7,17.3,0.03,Rain-Thunderstorm,Light Rain,220,2012-10-14 10:33:00
5:53 AM,64.0,63.0,96,29.91,10.0,SW,13.8,-,0.03,,Partly Cloudy,220,2012-10-14 10:53:00
6:53 AM,64.0,63.0,96,29.91,10.0,WSW,10.4,-,N/A,,Clear,240,2012-10-14 11:53:00
7:53 AM,66.0,63.0,90,29.92,10.0,WSW,11.5,-,N/A,,Clear,240,2012-10-14 12:53:00
8:53 AM,66.0,64.9,96,29.96,10.0,SSW,9.2,-,N/A,,Clear,210,2012-10-14 13:53:00
9:34 AM,68.0,66.2,94,30.00,10.0,SSW,9.2,-,N/A,,Mostly Cloudy,210,2012-10-14 14:34:00
9:53 AM,69.1,66.9,93,30.00,10.0,SW,6.9,-,N/A,,Mostly Cloudy,220,2012-10-14 14:53:00
10:51 AM,73.4,66.2,78,30.01,10.0,SW,12.7,-,N/A,,Clear,220,2012-10-14 15:51:00
10:53 AM,73.0,66.9,81,30.00,10.0,WSW,11.5,-,N/A,,Clear,240,2012-10-14 15:53:00
11:53 AM,75.9,63.0,64,30.00,10.0,West,8.1,-,N/A,,Clear,260,2012-10-14 16:53:00
12:53 PM,79.0,61.0,54,30.00,10.0,West,10.4,-,N/A,,Clear,270,2012-10-14 17:53:00
1:53 PM,80.1,59.0,48,29.98,10.0,West,9.2,17.3,N/A,,Clear,270,2012-10-14 18:53:00
3:53 PM,81.0,53.1,38,29.96,10.0,NW,13.8,-,N/A,,Clear,310,2012-10-14 20:53:00
4:53 PM,80.1,54.0,40,29.97,10.0,WNW,11.5,-,N/A,,Clear,300,2012-10-14 21:53:00
5:53 PM,79.0,55.9,45,29.97,10.0,West,8.1,-,N/A,,Clear,280,2012-10-14 22:53:00
6:53 PM,75.0,55.9,51,29.98,10.0,West,4.6,-,N/A,,Clear,280,2012-10-14 23:53:00
7:53 PM,70.0,57.0,63,29.99,10.0,NW,4.6,-,N/A,,Clear,320,2012-10-15 00:53:00
8:53 PM,69.1,54.0,58,30.01,10.0,NNW,4.6,-,N/A,,Clear,330,2012-10-15 01:53:00
9:53 PM,68.0,53.1,59,30.03,10.0,NNW,3.5,-,N/A,,Clear,330,2012-10-15 02:53:00
10:53 PM,64.9,52.0,63,30.05,10.0,North,3.5,-,N/A,,Clear,350,2012-10-15 03:53:00
11:53 PM,61.0,54.0,78,30.05,10.0,Calm,Calm,-,N/A,,Clear,0,2012-10-15 04:53:00